Date String (YYYY-MM-DD hh:mm:ss) UTC,Instrument flags,Ambient pressure (hPa),Sample flow (lpm),Bypass flow (lpm),Sample temperature (°C),Ambient temperature (°C),ASC tube jacket temperature (°C),LED temperature (°C),Box temperature (°C),Sample RH (%),Span deviation,Mass concentration (μg/m³),Mass concentration (μg/m³),Mass concentration (μg/m³)
DateTimeUTC,F1_M11,P_M11,Q1_M11,Q2_M11,T1_M11,T2_M11,T3_M11,T4_M11,T5_M11,U1_M11,ZSPAN_M11,X2_M11,X0_M11,X1_M11
2023-01-22 22:00:00,,0819.1,5.02,0.00,26.2,25.0,00.0,34.8,28.0,09.5,0000.0,0006.58,0012.16,0005.77
2023-01-22 22:01:00,,0819.2,4.99,0.00,26.2,25.0,00.0,34.8,28.0,09.5,0000.0,0006.58,0012.30,0005.77
2023-01-22 22:02:00,,0819.1,5.00,0.00,26.2,25.0,00.0,34.8,28.1,09.5,0000.0,0006.59,0013.33,0005.75
2023-01-22 22:03:00,,0819.1,4.99,0.00,26.2,25.0,00.0,34.9,28.1,09.5,0000.0,0006.59,0013.29,0005.75
2023-01-22 22:04:00,,0819.1,5.01,0.00,26.2,25.1,00.0,34.9,28.1,09.5,0000.0,0006.57,0013.77,0005.74
2023-01-22 22:05:00,,0819.2,4.98,0.00,26.2,25.1,00.0,34.9,28.1,09.5,0000.0,0006.58,0014.40,0005.73
2023-01-22 22:06:00,,0819.2,5.00,0.00,26.2,25.1,00.0,34.9,28.1,09.6,0000.0,0006.58,0014.10,0005.73
2023-01-22 22:07:00,,0819.1,4.99,0.00,26.3,25.1,00.0,34.9,28.2,09.6,0000.0,0006.56,0014.16,0005.73
2023-01-22 22:08:00,,0819.2,5.00,0.00,26.3,25.1,00.0,34.9,28.2,09.5,0000.0,0006.56,0014.33,0005.74
2023-01-22 22:09:00,,0819.2,5.00,0.00,26.3,25.1,00.0,34.9,28.2,09.5,0000.0,0006.58,0014.41,0005.75
2023-01-22 22:10:00,,0819.3,5.01,0.00,26.3,25.2,00.0,34.9,28.2,09.4,0000.0,0006.62,0013.95,0005.76
2023-01-22 22:11:00,,0819.3,5.03,0.00,26.3,25.2,00.0,35.0,28.3,09.6,0000.0,0006.62,0013.78,0005.76
2023-01-22 22:12:00,,0819.3,5.01,0.00,26.3,25.2,00.0,35.0,28.3,09.5,0000.0,0006.60,0014.84,0005.75
2023-01-22 22:13:00,,0819.3,5.02,0.00,26.4,25.2,00.0,35.0,28.3,09.5,0000.0,0006.56,0014.01,0005.73
2023-01-22 22:14:00,,0819.3,5.01,0.00,26.4,25.2,00.0,35.0,28.3,09.4,0000.0,0006.47,0014.48,0005.67
2023-01-22 22:15:00,,0819.3,5.00,0.00,26.4,25.2,00.0,35.0,28.3,09.5,0000.0,0006.39,0013.90,0005.64
2023-01-22 22:16:00,,0819.3,4.97,0.00,26.4,25.2,00.0,35.0,28.3,09.5,0000.0,0006.36,0013.31,0005.59
2023-01-22 22:17:00,,0819.3,4.99,0.00,26.4,25.2,00.0,35.0,28.3,09.5,0000.0,0006.30,0013.64,0005.54
2023-01-22 22:18:00,,0819.3,5.02,0.00,26.4,25.3,00.0,35.1,28.3,09.4,0000.0,0006.23,0013.39,0005.48
2023-01-22 22:19:00,,0819.3,5.01,0.00,26.4,25.3,00.0,35.1,28.3,09.3,0000.0,0006.16,0013.06,0005.42
2023-01-22 22:20:00,,0819.3,5.00,0.00,26.4,25.3,00.0,35.1,28.3,09.3,0000.0,0006.10,0013.38,0005.34
2023-01-22 22:21:00,,0819.3,5.02,0.00,26.5,25.3,00.0,35.1,28.4,09.3,0000.0,0006.05,0013.98,0005.28
2023-01-22 22:22:00,,0819.2,5.04,0.00,26.5,25.3,00.0,35.1,28.4,09.3,0000.0,0005.97,0013.81,0005.22
2023-01-22 22:23:00,,0819.2,5.02,0.00,26.5,25.3,00.0,35.1,28.4,09.3,0000.0,0005.96,0012.60,0005.16
2023-01-22 22:24:00,,0819.3,4.99,0.00,26.5,25.3,00.0,35.1,28.4,09.3,0000.0,0005.97,0012.42,0005.12
2023-01-22 22:25:00,,0819.3,5.01,0.00,26.5,25.3,00.0,35.1,28.4,09.4,0000.0,0006.03,0012.07,0005.11
2023-01-22 22:26:00,,0819.3,4.99,0.00,26.5,25.4,00.0,35.2,28.4,09.5,0000.0,0006.05,0012.11,0005.10
2023-01-22 22:27:00,,0819.3,5.02,0.00,26.5,25.4,00.0,35.2,28.4,09.6,0000.0,0006.03,0012.11,0005.11
2023-01-22 22:28:00,,0819.3,5.02,0.00,26.5,25.4,00.0,35.2,28.4,09.5,0000.0,0006.05,0011.63,0005.12
2023-01-22 22:29:00,,0819.4,4.99,0.00,26.5,25.4,00.0,35.2,28.4,09.5,0000.0,0006.10,0011.68,0005.13
2023-01-22 22:30:00,,0819.4,5.00,0.00,26.5,25.4,00.0,35.2,28.4,09.5,0000.0,0006.11,0012.13,0005.14
2023-01-22 22:31:00,,0819.4,5.01,0.00,26.6,25.4,00.0,35.2,28.4,09.5,0000.0,0006.11,0011.78,0005.16
2023-01-22 22:32:00,,0819.5,4.99,0.00,26.6,25.4,00.0,35.2,28.4,09.5,0000.0,0006.07,0011.42,0005.18
2023-01-22 22:33:00,,0819.5,5.03,0.00,26.6,25.4,00.0,35.2,28.5,09.4,0000.0,0006.09,0011.54,0005.18
2023-01-22 22:34:00,,0819.5,5.02,0.00,26.6,25.4,00.0,35.3,28.5,09.4,0000.0,0006.10,0012.01,0005.21
2023-01-22 22:35:00,,0819.5,5.01,0.00,26.6,25.4,00.0,35.3,28.5,09.3,0000.0,0006.09,0012.25,0005.21
2023-01-22 22:36:00,,0819.5,4.97,0.00,26.6,25.4,00.0,35.3,28.5,09.3,0000.0,0006.08,0012.14,0005.22
2023-01-22 22:37:00,,0819.5,4.99,0.00,26.6,25.4,00.0,35.3,28.5,09.4,0000.0,0006.08,0012.21,0005.22
2023-01-22 22:38:00,,0819.5,5.00,0.00,26.6,25.4,00.0,35.3,28.5,09.4,0000.0,0006.06,0012.58,0005.20
2023-01-22 22:39:00,,0819.5,5.02,0.00,26.6,25.4,00.0,35.3,28.5,09.3,0000.0,0006.03,0012.70,0005.19
2023-01-22 22:40:00,,0819.5,4.98,0.00,26.6,25.4,00.0,35.3,28.5,09.1,0000.0,0005.99,0012.68,0005.18
2023-01-22 22:41:00,,0819.5,5.01,0.00,26.6,25.4,00.0,35.3,28.5,09.2,0000.0,0006.02,0012.44,0005.18
2023-01-22 22:42:00,,0819.5,4.99,0.00,26.7,25.4,00.0,35.3,28.5,09.2,0000.0,0006.01,0012.46,0005.17
2023-01-22 22:43:00,,0819.5,4.99,0.00,26.7,25.4,00.0,35.4,28.5,09.2,0000.0,0006.03,0012.19,0005.13
2023-01-22 22:44:00,,0819.5,5.00,0.00,26.7,25.4,00.0,35.4,28.5,09.2,0000.0,0006.01,0011.97,0005.13
2023-01-22 22:45:00,,0819.5,4.99,0.00,26.7,25.4,00.0,35.4,28.5,09.2,0000.0,0005.96,0012.25,0005.10
2023-01-22 22:46:00,,0819.6,4.99,0.00,26.7,25.4,00.0,35.4,28.5,09.2,0000.0,0005.95,0011.87,0005.11
2023-01-22 22:47:00,,0819.6,4.99,0.00,26.7,25.4,00.0,35.4,28.5,09.1,0000.0,0005.92,0011.83,0005.13
2023-01-22 22:48:00,,0819.6,4.99,0.00,26.7,25.4,00.0,35.4,28.5,09.0,0000.0,0005.94,0011.76,0005.16
2023-01-22 22:49:00,,0819.7,4.94,0.00,26.7,25.4,00.0,35.4,28.6,09.0,0000.0,0005.93,0011.30,0005.20
2023-01-22 22:50:00,,0819.7,4.99,0.00,26.7,25.4,00.0,35.4,28.6,09.0,0000.0,0005.93,0010.98,0005.22
2023-01-22 22:51:00,,0819.7,4.98,0.00,26.7,25.4,00.0,35.4,28.6,09.2,0000.0,0005.92,0010.90,0005.22
2023-01-22 22:52:00,,0819.7,5.00,0.00,26.7,25.4,00.0,35.4,28.6,09.2,0000.0,0005.91,0010.69,0005.22
2023-01-22 22:53:00,,0819.7,4.99,0.00,26.7,25.5,00.0,35.4,28.6,09.2,0000.0,0005.87,0010.37,0005.22
2023-01-22 22:54:00,,0819.7,4.99,0.00,26.8,25.5,00.0,35.4,28.6,09.2,0000.0,0005.83,0010.37,0005.23
2023-01-22 22:55:00,,0819.7,5.01,0.00,26.8,25.5,00.0,35.5,28.6,09.2,0000.0,0005.88,0010.52,0005.23
2023-01-22 22:56:00,,0819.7,5.00,0.00,26.8,25.5,00.0,35.5,28.6,09.2,0000.0,0005.92,0010.06,0005.24
2023-01-22 22:57:00,,0819.7,5.03,0.00,26.8,25.5,00.0,35.5,28.6,09.1,0000.0,0005.93,0010.44,0005.24
2023-01-22 22:58:00,,0819.8,4.99,0.00,26.8,25.5,00.0,35.5,28.6,09.1,0000.0,0005.92,0010.36,0005.22
2023-01-22 22:59:00,,0819.7,5.03,0.00,26.8,25.5,00.0,35.5,28.6,09.0,0000.0,0005.87,0010.27,0005.18
